Showing default

FENGYUN 1C, 25730

Orbit data source: Space-Track

FENGYUN 1C, 25730 is a payload satellite owned by CNMSC (CN) in SSO that was launched on Mon, 10 May 1999 UTC via a CHANG ZHENG 4B launch vehicle from the Taiyaun Space Center, China (TSC). Payload-class satellites include a variety of spacecraft equipped with specific instruments for various scientific and technological missions. These include communications satellites like Starlink; space stations such as the ISS; scientific satellites like the Hubble; Earth observation satellites from companies like Planet Labs, Umbra, and HawkEye 360; GPS; miniature CubeSats for education and research; and military/defense satellites.

Loading next visibility...
Identifier
25730, 1999-025A
Orbit
SSO
Country
Flag of CNCN / PRC
Related business
Manufacturer
SISE
Mission
Non-operational Civil Imaging
Bus & Motor
FY-1, Unknown motor
Mass
958 kg wet, ~958 kg dry
Launch date (UTC)
1999-05-10 (26 years ago)
Launch vehicle
CHANG ZHENG 4B
Launch site
Taiyaun Space Center, China (TSC)
Object type
Payload
Rocket body
Debris
Shape & HBR
Box + 2 Pan, 4.3 m
Radar Cross Section
5.659 m², Medium (>0.1 m² and < 1m²)

Expand to show TLE details & history
Last TLE update: 20 hours ago

TLE from 20 hours ago
0 FENGYUN 1C
1 25730U 99025A   25294.18355757  .00004850  00000-0  20643-2 0  9999
2 25730  98.8906 359.4966 0010057 210.9688 149.0899 14.25623199363888
Epoch: 2025-10-21T04:24Z
TLE epoch observation values (Epoch: 2025-10-21T04:24:19.374Z)
Latitude
-0°
Longitude
-96.4593°
Altitude
815.517 km
Speed
7.442 km/s
True Right ascension
23h 57m 59s
True Declination
0° 00' 00"
Sunlit
Object was in full shadow at epoch
Visualization orbit readout
Latitude
Unknown
Longitude
Unknown
Altitude
Unknown
Speed
Unknown
Apparent Right ascension
Unknown
Apparent Declination
Unknown
Sunlit
N/A
Visualization observer readout
Local Sidereal Time
19:26:23
Azimuth
Unknown
Elevation
Unknown
Doppler factor
Unknown
Orbital elements
Apogee altitude
810.781 km
Perigee altitude
796.335 km
Semi-major axis
7,181.695 km
Eccentricity
0.00101
Inclination
98.8906°
RAAN
359.4966°
Arg. of periapsis
210.9688°
True anomaly
149.14904°
Mean anomaly
149.0899°
Eccentric anomaly
149.11947°
Mean motion
3.56618 °/min
Orbital period
100.95 mins
BSTAR
0.0020643
Loading maneuver chart data...
Computing Atmospheric mass density...

Documentation

Showing up to 5 results
|